| time (UTC) | temp F | wind direction | speed knots | gust knots | rain 1hr in | rain 24hr in | rain mn in | humidity % | barometer mb |
| 20260831233518 | 83 | 136 | 2.6 | 6.1 | 0.00 | 0.03 | 0.00 | 73 | 1040.6 |
| 20260831232535 | 84 | 145 | 2.6 | 7.0 | 0.00 | 0.03 | 0.00 | 72 | 1040.7 |
| 20260831231531 | 84 | 156 | 3.5 | 7.8 | 0.00 | 0.03 | 0.00 | 70 | 1040.8 |
| 20260831230608 | 84 | 71 | 0.0 | 1.7 | 0.00 | 0.03 | 0.00 | 69 | 1040.7 |
| 20260831225524 | 85 | 59 | 0.9 | 1.7 | 0.00 | 0.03 | 0.00 | 69 | 1041.0 |
| 20260831224540 | 85 | 62 | 1.7 | 3.5 | 0.00 | 0.03 | 0.00 | 68 | 1041.0 |
| 20260831223517 | 86 | 53 | 1.7 | 3.5 | 0.00 | 0.03 | 0.00 | 67 | 1041.2 |
| 20260831222533 | 86 | 65 | 0.9 | 1.7 | 0.00 | 0.03 | 0.00 | 66 | 1041.2 |
| 20260831221529 | 86 | 50 | 0.9 | 1.7 | 0.00 | 0.03 | 0.00 | 66 | 1041.3 |
| 20260831220525 | 86 | 336 | 0.9 | 1.7 | 0.00 | 0.03 | 0.00 | 65 | 1041.3 |
| 20260831215521 | 86 | 327 | 0.9 | 1.7 | 0.00 | 0.03 | 0.00 | 65 | 1041.3 |
| 20260831214517 | 86 | 325 | 0.9 | 0.9 | 0.00 | 0.03 | 0.00 | 64 | 1041.1 |
| 20260831213534 | 86 | 320 | 1.7 | 2.6 | 0.00 | 0.03 | 0.00 | 64 | 1041.3 |
| 20260831212550 | 87 | 326 | 1.7 | 2.6 | 0.00 | 0.03 | 0.00 | 63 | 1041.2 |
| 20260831211607 | 87 | 317 | 1.7 | 3.5 | 0.00 | 0.03 | 0.00 | 63 | 1041.1 |
| 20260831210523 | 88 | 351 | 1.7 | 2.6 | 0.00 | 0.03 | 0.00 | 62 | 1041.0 |
| 20260831205520 | 88 | 358 | 1.7 | 3.5 | 0.00 | 0.03 | 0.00 | 62 | 1041.2 |
| 20260831204516 | 88 | 339 | 0.9 | 3.5 | 0.00 | 0.03 | 0.00 | 62 | 1041.3 |
| 20260831203532 | 88 | 303 | 1.7 | 5.2 | 0.00 | 0.03 | 0.00 | 63 | 1041.1 |
| 20260831202528 | 88 | 1 | 1.7 | 5.2 | 0.00 | 0.03 | 0.00 | 62 | 1041.2 |
| 20260831201525 | 89 | 264 | 0.9 | 3.5 | 0.00 | 0.03 | 0.00 | 63 | 1041.4 |
| 20260831200521 | 88 | 42 | 0.0 | 1.7 | 0.00 | 0.03 | 0.00 | 62 | 1041.2 |
| 20260831195516 | 89 | 293 | 1.7 | 5.2 | 0.00 | 0.03 | 0.00 | 62 | 1041.3 |
| 20260831194532 | 89 | 261 | 2.6 | 5.2 | 0.00 | 0.03 | 0.00 | 64 | 1041.2 |
| 20260831193548 | 88 | 234 | 0.9 | 2.6 | 0.00 | 0.03 | 0.00 | 64 | 1041.4 |
| 20260831192524 | 88 | 322 | 0.9 | 2.6 | 0.00 | 0.03 | 0.00 | 65 | 1041.6 |
| 20260831191520 | 87 | 96 | 0.9 | 1.7 | 0.00 | 0.03 | 0.00 | 66 | 1041.9 |
| 20260831190535 | 87 | 69 | 2.6 | 6.1 | 0.00 | 0.03 | 0.00 | 65 | 1041.8 |
| 20260831185530 | 87 | 103 | 2.6 | 6.1 | 0.00 | 0.03 | 0.00 | 66 | 1041.9 |
| 20260831184526 | 87 | 65 | 1.7 | 5.2 | 0.00 | 0.03 | 0.00 | 66 | 1042.1 |
| 20260831183522 | 86 | 81 | 1.7 | 2.6 | 0.00 | 0.03 | 0.00 | 68 | 1041.9 |
| 20260831182518 | 86 | 35 | 2.6 | 6.1 | 0.00 | 0.03 | 0.00 | 68 | 1042.0 |
| 20260831181555 | 86 | 17 | 2.6 | 6.1 | 0.00 | 0.03 | 0.00 | 68 | 1041.9 |
| 20260831180551 | 86 | 13 | 2.6 | 6.1 | 0.00 | 0.03 | 0.00 | 68 | 1041.8 |
| 20260831175528 | 86 | 59 | 1.7 | 2.6 | 0.00 | 0.03 | 0.00 | 67 | 1041.9 |
| 20260831174524 | 87 | 45 | 2.6 | 6.1 | 0.00 | 0.03 | 0.00 | 67 | 1042.2 |
| 20260831173520 | 87 | 120 | 1.7 | 3.5 | 0.00 | 0.03 | 0.00 | 67 | 1042.1 |
| 20260831172537 | 87 | 53 | 1.7 | 5.2 | 0.00 | 0.03 | 0.00 | 67 | 1042.4 |
| 20260831171533 | 86 | 64 | 2.6 | 6.1 | 0.00 | 0.03 | 0.00 | 68 | 1042.3 |
| 20260831170610 | 85 | 355 | 1.7 | 5.2 | 0.00 | 0.03 | 0.00 | 69 | 1042.4 |
| 20260831165525 | 85 | 12 | 4.3 | 7.0 | 0.00 | 0.03 | 0.00 | 69 | 1042.5 |
| 20260831164522 | 85 | 45 | 2.6 | 7.8 | 0.00 | 0.03 | 0.00 | 69 | 1042.6 |
| 20260831163518 | 85 | 153 | 2.6 | 5.2 | 0.00 | 0.03 | 0.00 | 70 | 1042.8 |
| 20260831162535 | 85 | 54 | 2.6 | 6.1 | 0.00 | 0.03 | 0.00 | 70 | 1042.9 |
| 20260831161612 | 85 | 26 | 5.2 | 9.6 | 0.00 | 0.03 | 0.00 | 70 | 1043.0 |
| 20260831160527 | 85 | 47 | 2.6 | 6.1 | 0.00 | 0.03 | 0.00 | 70 | 1042.9 |
| 20260831155523 | 85 | 102 | 3.5 | 7.8 | 0.00 | 0.03 | 0.00 | 69 | 1042.6 |
| 20260831154519 | 85 | 50 | 3.5 | 7.0 | 0.00 | 0.03 | 0.00 | 71 | 1042.6 |
| 20260831153515 | 84 | 21 | 5.2 | 9.6 | 0.00 | 0.03 | 0.00 | 71 | 1042.7 |
| 20260831152532 | 84 | 96 | 2.6 | 7.0 | 0.00 | 0.03 | 0.00 | 73 | 1042.6 |
| 20260831151528 | 84 | 85 | 3.5 | 7.8 | 0.00 | 0.03 | 0.00 | 73 | 1042.7 |
| 20260831150525 | 83 | 99 | 3.5 | 7.8 | 0.00 | 0.03 | 0.00 | 74 | 1042.7 |
| 20260831145521 | 82 | 100 | 3.5 | 6.1 | 0.00 | 0.03 | 0.00 | 77 | 1042.8 |
| 20260831144517 | 81 | 31 | 4.3 | 12.2 | 0.00 | 0.03 | 0.00 | 78 | 1042.9 |
| 20260831143534 | 80 | 43 | 4.3 | 12.2 | 0.00 | 0.03 | 0.00 | 78 | 1042.6 |
| 20260831142530 | 81 | 20 | 3.5 | 7.8 | 0.00 | 0.03 | 0.00 | 79 | 1042.6 |
| 20260831141526 | 81 | 50 | 3.5 | 8.7 | 0.00 | 0.03 | 0.00 | 79 | 1042.5 |
| 20260831140522 | 81 | 55 | 3.5 | 7.0 | 0.00 | 0.03 | 0.00 | 79 | 1042.4 |
| 20260831135519 | 80 | 46 | 3.5 | 7.0 | 0.00 | 0.03 | 0.00 | 80 | 1042.6 |
| 20260831134535 | 80 | 61 | 3.5 | 6.1 | 0.00 | 0.03 | 0.00 | 80 | 1042.8 |
| 20260831132527 | 82 | 2 | 1.7 | 3.5 | 0.00 | 0.03 | 0.00 | 77 | 1042.7 |
| 20260831131524 | 83 | 91 | 1.7 | 5.2 | 0.00 | 0.03 | 0.00 | 78 | 1042.7 |
| 20260831130520 | 82 | 51 | 2.6 | 5.2 | 0.00 | 0.03 | 0.00 | 78 | 1042.7 |
| 20260831125517 | 81 | 74 | 2.6 | 5.2 | 0.00 | 0.03 | 0.00 | 81 | 1042.7 |
| 20260831124532 | 80 | 41 | 1.7 | 2.6 | 0.00 | 0.03 | 0.00 | 81 | 1042.6 |
| 20260831123529 | 80 | 111 | 1.7 | 3.5 | 0.00 | 0.03 | 0.00 | 80 | 1042.5 |
| 20260831122545 | 80 | 84 | 1.7 | 3.5 | 0.00 | 0.03 | 0.00 | 83 | 1042.5 |
| 20260831121521 | 77 | 54 | 1.7 | 2.6 | 0.00 | 0.03 | 0.00 | 86 | 1042.5 |
| 20260831120518 | 75 | 242 | 0.9 | 1.7 | 0.00 | 0.03 | 0.00 | 87 | 1042.4 |
| 20260831115534 | 75 | 37 | 0.9 | 3.5 | 0.00 | 0.03 | 0.00 | 88 | 1042.4 |
| 20260831114530 | 74 | 0 | 0.9 | 1.7 | 0.00 | 0.03 | 0.00 | 90 | 1042.4 |
| 20260831113526 | 73 | 341 | 0.9 | 1.7 | 0.00 | 0.03 | 0.00 | 91 | 1042.3 |
| 20260831112522 | 73 | 330 | 0.9 | 1.7 | 0.00 | 0.03 | 0.00 | 91 | 1042.1 |
| 20260831111519 | 72 | 0.0 | 0.0 | 0.00 | 0.03 | 0.00 | 92 | 1042.0 | |
| 20260831110535 | 72 | 217 | 0.0 | 0.9 | 0.00 | 0.03 | 0.00 | 92 | 1041.9 |
| 20260831105532 | 72 | 317 | 0.9 | 1.7 | 0.00 | 0.03 | 0.00 | 92 | 1041.9 |
| 20260831104528 | 71 | 0.0 | 0.0 | 0.00 | 0.03 | 0.00 | 92 | 1041.7 | |
| 20260831103524 | 71 | 337 | 0.9 | 1.7 | 0.00 | 0.03 | 0.00 | 92 | 1041.5 |
| 20260831102520 | 71 | 0.0 | 0.0 | 0.00 | 0.03 | 0.00 | 92 | 1041.4 | |
| 20260831101537 | 71 | 0.0 | 0.0 | 0.00 | 0.03 | 0.00 | 92 | 1041.5 | |
| 20260831100533 | 71 | 0.0 | 0.0 | 0.00 | 0.03 | 0.00 | 92 | 1041.6 | |
| 20260831095529 | 71 | 0.0 | 0.0 | 0.00 | 0.03 | 0.00 | 91 | 1041.5 | |
| 20260831094525 | 71 | 0.0 | 0.0 | 0.00 | 0.03 | 0.00 | 91 | 1041.4 | |
| 20260831093522 | 71 | 0.0 | 0.0 | 0.00 | 0.03 | 0.00 | 91 | 1041.5 | |
| 20260831092538 | 71 | 233 | 0.0 | 0.9 | 0.00 | 0.03 | 0.00 | 91 | 1041.5 |
| 20260831091534 | 71 | 0.0 | 0.0 | 0.00 | 0.03 | 0.00 | 91 | 1041.2 | |
| 20260831090531 | 71 | 0.0 | 0.0 | 0.00 | 0.03 | 0.00 | 92 | 1041.2 | |
| 20260831085528 | 71 | 345 | 0.9 | 1.7 | 0.00 | 0.03 | 0.00 | 92 | 1041.2 |
| 20260831084523 | 72 | 43 | 0.9 | 1.7 | 0.00 | 0.03 | 0.00 | 92 | 1041.3 |
| 20260831083520 | 72 | 0.0 | 0.0 | 0.00 | 0.03 | 0.00 | 92 | 1041.2 | |
| 20260831082516 | 72 | 0.0 | 0.0 | 0.00 | 0.03 | 0.00 | 92 | 1041.4 | |
| 20260831081533 | 72 | 18 | 0.9 | 1.7 | 0.00 | 0.03 | 0.00 | 92 | 1041.5 |
| 20260831080529 | 72 | 356 | 0.9 | 2.6 | 0.00 | 0.03 | 0.00 | 92 | 1041.3 |
| 20260831075525 | 72 | 345 | 0.9 | 1.7 | 0.00 | 0.03 | 0.00 | 92 | 1041.2 |
| 20260831074522 | 72 | 0.0 | 0.0 | 0.00 | 0.03 | 0.00 | 92 | 1041.2 | |
| 20260831073559 | 72 | 358 | 0.9 | 1.7 | 0.00 | 0.03 | 0.00 | 92 | 1041.2 |
| 20260831072555 | 72 | 0.0 | 0.0 | 0.00 | 0.03 | 0.00 | 92 | 1041.2 | |
| 20260831071530 | 72 | 0.0 | 0.0 | 0.00 | 0.03 | 0.00 | 92 | 1041.2 | |
| 20260831070527 | 72 | 0.0 | 0.0 | 0.00 | 0.03 | 0.00 | 92 | 1041.2 | |
| 20260831065523 | 72 | 0.0 | 0.0 | 0.00 | 0.03 | 0.00 | 92 | 1041.4 | |
| 20260831064520 | 72 | 0.0 | 0.0 | 0.00 | 0.03 | 0.00 | 91 | 1041.3 | |
| 20260831063516 | 72 | 0.0 | 0.0 | 0.00 | 0.03 | 0.00 | 91 | 1041.5 | |
| 20260831062532 | 72 | 0.0 | 0.0 | 0.00 | 0.03 | 0.00 | 91 | 1041.5 | |
| 20260831061529 | 72 | 0.0 | 0.0 | 0.00 | 0.03 | 0.00 | 91 | 1041.5 | |
| 20260831060525 | 73 | 0.0 | 0.0 | 0.00 | 0.03 | 0.00 | 91 | 1041.7 | |
| 20260831055522 | 73 | 0.0 | 0.0 | 0.00 | 0.03 | 0.00 | 91 | 1041.7 | |
| 20260831054517 | 73 | 0.0 | 0.0 | 0.00 | 0.03 | 0.00 | 91 | 1041.7 | |
| 20260831053534 | 73 | 342 | 0.9 | 0.9 | 0.00 | 0.03 | 0.00 | 90 | 1041.8 |
| 20260831052530 | 73 | 0.0 | 0.0 | 0.00 | 0.03 | 0.00 | 90 | 1041.8 | |
| 20260831051526 | 73 | 0.0 | 0.0 | 0.00 | 0.03 | 0.00 | 90 | 1041.7 | |
| 20260831050523 | 73 | 269 | 0.9 | 1.7 | 0.00 | 0.03 | 0.00 | 90 | 1041.7 |
| 20260831045539 | 73 | 205 | 0.9 | 1.7 | 0.00 | 0.03 | 0.00 | 90 | 1042.1 |
| 20260831044536 | 73 | 171 | 0.0 | 1.7 | 0.00 | 0.03 | 0.00 | 90 | 1042.0 |
| 20260831043532 | 73 | 182 | 0.0 | 1.7 | 0.00 | 0.03 | 0.00 | 89 | 1041.8 |
| 20260831042528 | 73 | 0.0 | 0.0 | 0.00 | 0.03 | 0.00 | 89 | 1041.8 | |
| 20260831041524 | 73 | 0.0 | 0.0 | 0.00 | 0.03 | 0.00 | 88 | 1041.9 | |
| 20260831040520 | 74 | 0.0 | 0.0 | 0.00 | 0.03 | 0.00 | 88 | 1042.0 | |
| 20260831035517 | 74 | 0.0 | 0.0 | 0.00 | 0.03 | 0.03 | 88 | 1041.9 | |
| 20260831034534 | 74 | 0.0 | 0.0 | 0.00 | 0.03 | 0.03 | 88 | 1041.9 | |
| 20260831033530 | 74 | 0.0 | 0.0 | 0.00 | 0.03 | 0.03 | 88 | 1041.9 | |
| 20260831032526 | 74 | 0.0 | 0.0 | 0.00 | 0.03 | 0.03 | 88 | 1041.8 | |
| 20260831031522 | 74 | 0.0 | 0.0 | 0.00 | 0.03 | 0.03 | 87 | 1041.9 | |
| 20260831030519 | 74 | 0.0 | 0.0 | 0.00 | 0.03 | 0.03 | 87 | 1041.9 | |
| 20260831025535 | 74 | 0.0 | 0.0 | 0.00 | 0.03 | 0.03 | 87 | 1042.0 | |
| 20260831024532 | 74 | 17 | 0.0 | 0.9 | 0.00 | 0.03 | 0.03 | 87 | 1042.2 |
| 20260831023528 | 74 | 0.0 | 0.0 | 0.00 | 0.03 | 0.03 | 87 | 1042.4 | |
| 20260831022524 | 74 | 0.0 | 0.0 | 0.00 | 0.03 | 0.03 | 85 | 1042.4 | |
| 20260831021520 | 75 | 8 | 0.9 | 2.6 | 0.00 | 0.03 | 0.03 | 86 | 1042.3 |
| 20260831020517 | 75 | 263 | 0.0 | 0.9 | 0.00 | 0.03 | 0.03 | 85 | 1042.5 |
| 20260831015533 | 75 | 0.0 | 0.0 | 0.00 | 0.03 | 0.03 | 84 | 1042.4 | |
| 20260831014550 | 75 | 279 | 0.9 | 2.6 | 0.00 | 0.03 | 0.03 | 85 | 1042.3 |
| 20260831013525 | 75 | 285 | 3.5 | 6.1 | 0.00 | 0.03 | 0.03 | 84 | 1042.4 |
| 20260831012522 | 75 | 270 | 0.9 | 1.7 | 0.01 | 0.03 | 0.03 | 84 | 1042.1 |
| 20260831011518 | 75 | 242 | 0.9 | 2.6 | 0.03 | 0.03 | 0.03 | 84 | 1042.0 |
| 20260831010535 | 76 | 214 | 0.9 | 3.5 | 0.03 | 0.03 | 0.03 | 83 | 1042.1 |
| 20260831005530 | 76 | 242 | 2.6 | 7.0 | 0.03 | 0.03 | 0.03 | 83 | 1042.2 |
| 20260831004527 | 77 | 242 | 3.5 | 13.9 | 0.03 | 0.03 | 0.03 | 82 | 1042.0 |
| 20260831003523 | 78 | 248 | 5.2 | 12.2 | 0.03 | 0.03 | 0.03 | 81 | 1042.0 |
| 20260831002519 | 81 | 239 | 6.1 | 15.6 | 0.02 | 0.02 | 0.02 | 77 | 1042.1 |
| 20260831001556 | 83 | 227 | 7.0 | 16.5 | 0.00 | 0.00 | 0.00 | 72 | 1041.9 |
| 20260831000532 | 84 | 184 | 4.3 | 7.8 | 0.00 | 0.00 | 0.00 | 69 | 1041.7 |
| 20260830235528 | 84 | 197 | 3.5 | 7.8 | 0.00 | 0.00 | 0.00 | 66 | 1041.8 |
| 20260830234525 | 84 | 176 | 3.5 | 7.0 | 0.00 | 0.00 | 0.00 | 66 | 1041.6 |